Change the Weather History Date:

Sunday, March 4, 2012

  Actual Average (KNSE) Record (KNSE)
Temperature  
Mean Temperature 52 °F -  
Max Temperature 64 °F 66 °F 80 °F (1997)
Min Temperature 41 °F 46 °F 28 °F (2002)
Degree Days  
Heating Degree Days 12    
Growing Degree Days 2 (Base 50)    
Moisture  
Dew Point 30 °F    
Average Humidity 46    
Maximum Humidity 76    
Minimum Humidity 18    
Precipitation  
Precipitation 0.00 in - - ()
Sea Level Pressure  
Sea Level Pressure 30.08 in    
Wind  
Wind Speed 8 mph (NW)    
Max Wind Speed 21 mph    
Max Gust Speed 31 mph    
Visibility 10 miles    
Events      
Averages and records for this station are not official NWS values.
T = Trace of Precipitation, MM = Missing Value Source: NWS Daily Summary

Daily Weather History Graph

Daily Weather History Graph

Search for Another Location

Airport or City:

Trip Planner

Search our weather history database for the weather conditions in past years. The results will help you decide how hot, cold, wet, or windy it might be!

Date:

Astronomy

Mar. 04, 2012 Rise Set
Actual Time 6:10 AM CST 5:49 PM CST
Civil Twilight 5:46 AM CST 6:13 PM CST
Nautical Twilight 5:18 AM CST 6:41 PM CST
Astronomical Twilight 4:50 AM CST 7:09 PM CST
Moon 2:13 PM CST (3/4) 3:16 AM CST (3/4)
Length of Visible Light 12h 26m
Length of Day
11h 38m
Waxing Gibbous, 84% of the Moon is Illuminated
Mar 4
Waxing Gibbous
Mar 8
Full
Mar 14
Last Quarter
Mar 22
New
Mar 30
First Quarter

Hourly Weather History & Observations

Time (CST) Temp. Windchill Dew Point Humidity Pressure Visibility Wind Dir Wind Speed Gust Speed Precip Events Conditions
12:56 AM 48.9 °F - 35.1 °F 59% 29.91 in 10.0 mi NW 11.5 mph 20.7 mph N/A   Clear
1:56 AM 46.9 °F - 34.0 °F 61% 29.93 in 10.0 mi NW 9.2 mph 17.3 mph N/A   Clear
2:56 AM 45.0 °F 41.2 °F 34.0 °F 65% 29.95 in 10.0 mi NW 6.9 mph - N/A   Clear
3:56 AM 44.1 °F 39.5 °F 33.1 °F 65% 29.98 in 10.0 mi NW 8.1 mph - N/A   Clear
4:56 AM 43.0 °F 37.7 °F 33.1 °F 68% 30.01 in 10.0 mi NW 9.2 mph - N/A   Clear
5:56 AM 41.0 °F 38.0 °F 33.1 °F 73% 30.06 in 10.0 mi WNW 4.6 mph - N/A   Clear
6:56 AM 41.0 °F 37.1 °F 34.0 °F 76% 30.10 in 10.0 mi WNW 5.8 mph - N/A   Clear
7:56 AM 46.9 °F - 33.1 °F 59% 30.13 in 10.0 mi NW 4.6 mph - N/A   Clear
8:56 AM 53.1 °F - 28.9 °F 40% 30.14 in 10.0 mi Variable 4.6 mph - N/A   Clear
9:56 AM 57.0 °F - 25.0 °F 29% 30.13 in 10.0 mi NNW 4.6 mph - N/A   Clear
10:56 AM 61.0 °F - 25.0 °F 25% 30.13 in 10.0 mi NNW 10.4 mph - N/A   Clear
11:56 AM 62.1 °F - 21.0 °F 21% 30.10 in 10.0 mi NW 20.7 mph 31.1 mph N/A   Clear
12:56 PM 64.0 °F - 19.9 °F 18% 30.08 in 10.0 mi NW 16.1 mph 27.6 mph N/A   Clear
1:56 PM 64.0 °F - 21.0 °F 19% 30.06 in 10.0 mi NNW 15.0 mph 28.8 mph N/A   Clear
2:56 PM 64.9 °F - 21.9 °F 19% 30.06 in 10.0 mi NW 12.7 mph 21.9 mph N/A   Clear
3:56 PM 64.9 °F - 23.0 °F 20% 30.06 in 10.0 mi NW 8.1 mph 18.4 mph N/A   Clear
4:56 PM 63.0 °F - 24.1 °F 23% 30.09 in 10.0 mi NW 4.6 mph 16.1 mph N/A   Clear
5:56 PM 57.9 °F - 28.0 °F 32% 30.10 in 10.0 mi Calm Calm - N/A   Clear
6:56 PM 54.0 °F - 28.9 °F 38% 30.12 in 10.0 mi Calm Calm - N/A   Clear
7:56 PM 53.1 °F - 28.9 °F 40% 30.13 in 10.0 mi Calm Calm - N/A   Clear
8:56 PM 52.0 °F - 36.0 °F 54% 30.16 in 10.0 mi SW 4.6 mph - N/A   Clear
9:56 PM 51.1 °F - 37.9 °F 61% 30.18 in 10.0 mi Calm Calm - N/A   Clear
10:56 PM 50.0 °F - 39.0 °F 66% 30.18 in 10.0 mi Calm Calm - N/A   Clear
11:56 PM 50.0 °F - 39.9 °F 68% 30.19 in 10.0 mi Calm Calm - N/A   Clear